Regional Weather Roundup
Issued by NWS Upton, NY

Current Version | Previous Version | Text Only | Print | Product List | Glossary On
Versions: 1 2 3 4 5 6 7 8 9 10 11 12 13 14 15 16 17 18 19 20 21 22 23 24 25 26 27 28 29
000
ASUS41 KOKX 250904
RWROKX

REGIONAL WEATHER ROUNDUP
NATIONAL WEATHER SERVICE NEW YORK NY
500 AM EDT THU AUG 25 2016

NOTE: "FAIR" INDICATES FEW OR NO CLOUDS BELOW 12,000 FEET WITH NO
SIGNIFICANT WEATHER AND/OR OBSTRUCTIONS TO VISIBILITY.

NYZ071-072-176-178-NJZ106-104-251000-
NEW YORK CITY METRO AREA

CITY           SKY/WX    TMP DP  RH WIND       PRES   REMARKS
Central Park     N/A     72  63  73 MISG        N/A
LaGuardia APRT PTCLDY    74  62  66 SW13      30.12R
Kennedy INTL   PTCLDY    71  67  87 W14       30.14R
Newark/Liberty PTCLDY    69  62  78 SW10      30.13R
Bronx Bot Gard   N/A     72  61  68 SW7       30.14R
Wall St Helipt SUNNY     72  64  78 W12       30.14R
Teterboro      CLEAR     69  62  78 SW7       30.12R
$$

NYZ177-179-078>081-251000-
LONG ISLAND NEW YORK

CITY           SKY/WX    TMP DP  RH WIND       PRES   REMARKS
Farmingdale    CLEAR     69  63  81 SW5       30.13S
MacArthur/ISP  PTCLDY    68  62  81 SW5       30.13F
Shirley        CLEAR     65  62  90 CALM      30.14F
Riverhead      NOT AVBL
Westhampton    PTCLDY    69  65  86 S5        30.15S
Southampton      N/A     72  68  88 SW3       30.10F
Bridgehampton    N/A     66  64  94 CALM      30.13R
East Hampton   FAIR      69  65  87 SW5       30.13S
Montauk          N/A     71  67  87 SW5       30.15S
$$

NYZ052-065-067-251000-
HUDSON VALLEY

CITY           SKY/WX    TMP DP  RH WIND       PRES   REMARKS
White Plains   CLEAR     68  62  81 VRB5      30.13R
Newburgh       CLEAR     64  63  94 NW5       30.13S
Montgomery     CLEAR     61  60  97 CALM      30.11F
Poughkeepsie   CLEAR     65  61  87 CALM      30.11S
Albany         PTCLDY    68  62  81 S8        30.06F
$$

NJZ001-105-106-008-010-013-015-019>022-104-251000-
NEW JERSEY

CITY           SKY/WX    TMP DP  RH WIND       PRES   REMARKS
Newark/Liberty PTCLDY    69  62  78 SW10      30.13R
Teterboro      CLEAR     69  62  78 SW7       30.12R
Caldwell       CLEAR     67  62  84 CALM      30.13S
Morristown     CLEAR     59  59 100 CALM      30.13S
Somerville     CLEAR     59  57  93 CALM      30.12S FOG
Linden         FAIR      69  62  78 CALM      30.14S
Sussex         CLEAR     60  60 100 CALM      30.12F
Abdover          N/A     60  60 100 CALM      30.14S
Trenton        CLEAR     66  61  84 CALM      30.13S
Millville      CLEAR     62  62 100 CALM      30.15S
Atlantic City  CLEAR     66  61  84 SW5       30.15S
Wrightstown    PTCLDY    63  61  94 CALM      30.12S
Toms River     CLOUDY    62  60  93 SW5       30.15S
Belmar         PTCLDY    64  62  93 SW5       30.15S
$$

PAZ047>061-062-071-251000-
EASTERN PENNSYLVANIA

CITY           SKY/WX    TMP DP  RH WIND       PRES   REMARKS
Philadelphia   PTCLDY    69  62  78 SW6       30.14F
Allentown      CLEAR     63  60  90 CALM      30.12S
Scranton       CLEAR     69  62  78 SW8       30.11F
$$

CTZ002-004>006-009-010-012-RIZ004-006-007-MAZ004-011-015-251000-
SOUTHERN NEW ENGLAND
 IN CT

CITY           SKY/WX    TMP DP  RH WIND       PRES   REMARKS
Bradley INTL   PTCLDY    66  62  87 S7        30.11S
Hartford       CLEAR     70  65  84 S7        30.11S
Danbury        CLEAR     65  62  90 CALM      30.14R
Wtrbury/Oxford   N/A     64  59  82 SW3       30.14F
Bridgeport     CLEAR     73  64  73 SW10      30.12R
Meriden        CLEAR     65  62  90 S3        30.12S
New Haven      CLEAR     72  63  73 SW5       30.13R
Chester        FAIR      68  64  88 CALM      30.14R
Groton         MOCLDY    72  66  81 SW8       30.12S
Wilimantic     PTCLDY    63  62  97 CALM      30.13S

 IN RI

CITY           SKY/WX    TMP DP  RH WIND       PRES   REMARKS
Providence     MOCLDY    67  64  90 S6        30.13
Block Island   CLOUDY    70  67  90 SW9       30.15R
Westerly       MOCLDY    71  65  81 S5        30.14S
 IN MA

CITY           SKY/WX    TMP DP  RH WIND       PRES   REMARKS
Boston         CLOUDY    68  65  90 SW8       30.09F
Worcester      CLOUDY    64  61  90 SW14      30.12S
Westfield      CLEAR     61  61 100 SW5       30.10S
Provincetown   CLOUDY    68  67  96 SW10      30.14R
Nantucket      CLOUDY    69  65  86 S12       30.14F
$$

ANZ330-335-338-340-345-350-353-355-251000-
COASTAL MARINE OBSERVATIONS


STATION/POSITION TIME  SKY/WX   TEMP    WIND        PRES    VSBY  WAVE
                                AIR SEA DIR/SP/G                  HT/PER
                 (UTC)          (F)     (DEG/KT/KT) (MB)    (MI)  (FT/S)
NY HARB ENTRANCE 0750            73 75  240/ 16/ 19 1020.1          3/ 5
20S FIRE ISLAND  0750            74 76  220/ 16/ 17 1020.1          3/11
GREAT SOUTH BAY  0830            74 78  240/ 14/ 16   N/A
23 SSW MONTAUK P 0750            75 74  220/ 16/ 17 1020.3          3/11
15 E BARNEGAT LI 0800               75                N/A           3/11
HUDSON CANYON    0750            75 78              1021.2          2/11
KINGS POINT      0800            72 76              1019.7
EXECUTION ROCKS  0800            74     220/ 12/ 17   N/A
CENTRAL LI SOUND 0800            74 75  230/ 17/ 21   N/A           2/ 4
EASTERN LI SOUND 0800            72 70  210/  8/ 10   N/A
ROBBINS REEF     0800            71     250/ 13/ 15 1019.2
$$


>>>>>>>>>>>>>>>>>>>>>>>>>>>> KEY <<<<<<<<<<<<<<<<<<<<<<<<<<<
>                                                          <
>     SKY/WX - Sky Condition/Present Weather               <
>     TMP    - Temperature in Fahrenheit                   <
>     DP     - Dew Point in Fahrenheit                     <
>     RH     - Relative Humidity in Percent                <
>     WIND   - Direction (from) and Speed in MPH           <
>     PRES   - Mean Sea Level Pressure (inches of Hg)      <
>     WCI    - Wind Chill Index                            <
>     VSB    - VISIBILITY IN MILES                         <
>     HX     - HEAT INDEX                                  <
>     TC     - TEMPERATURE IN CELSIUS                      <
>     VRB    - VARIABLE WIND DIRECTION                     <
>                                                          <
>>>>>>>>>>>>>>>>>>>>>>>>>>>> KEY <<<<<<<<<<<<<<<<<<<<<<<<<<<




USA.gov is the U.S. government's official web portal to all federal, state and local government web resources and services.